QTR1248 OTHH-OEJN

Flight info

Callsign QTR1248
Flight time 2h 3m
Altitude 38000
Route TULUB2A/34L TULUB B457 NARMI N112 GETOT DCT UMASU M309 VEMEM
Aircraft A35K/H-SDE2E3GHIJ3J4J5LM1ORWXY/LB1D1

Departure

Time 2026-05-05 19:39
Airport Hamad International Airport (OTHH)

Arrival

Time 2026-05-05 21:43
Airport King Abdulaziz International Airport (OEJN)
Time Latitude Longitude Altitude Speed Heading
2026-05-05 19:11 25.26397 51.61118 36 ft 0 kts 69°
2026-05-05 19:11 25.26398 51.61122 36 ft 0 kts 68°
2026-05-05 19:30 25.26395 51.61112 36 ft 4 kts 68°
2026-05-05 19:30 25.26385 51.61084 35 ft 4 kts 68°
2026-05-05 19:31 25.26377 51.61062 32 ft 4 kts 73°
2026-05-05 19:31 25.26374 51.61035 32 ft 4 kts 115°
2026-05-05 19:31 25.26390 51.61019 34 ft 4 kts 158°
2026-05-05 19:31 25.26415 51.61008 35 ft 3 kts 158°
2026-05-05 19:32 25.26419 51.61006 32 ft 0 kts 158°
2026-05-05 19:35 25.26409 51.61011 34 ft 3 kts 158°
2026-05-05 19:35 25.26382 51.61023 31 ft 5 kts 158°
2026-05-05 19:35 25.26337 51.61042 36 ft 9 kts 158°
2026-05-05 19:36 25.26267 51.61069 36 ft 12 kts 174°
2026-05-05 19:36 25.26213 51.61014 36 ft 12 kts 248°
2026-05-05 19:36 25.26179 51.60922 36 ft 14 kts 248°
2026-05-05 19:36 25.26140 51.60815 36 ft 16 kts 248°
2026-05-05 19:37 25.26097 51.60695 36 ft 18 kts 248°
2026-05-05 19:37 25.26006 51.60645 36 ft 17 kts 155°
2026-05-05 19:37 25.25892 51.60697 35 ft 19 kts 158°
2026-05-05 19:37 25.25771 51.60744 35 ft 16 kts 181°
2026-05-05 19:38 25.25726 51.60690 35 ft 10 kts 249°
2026-05-05 19:38 25.25699 51.60609 34 ft 13 kts 250°
2026-05-05 19:38 25.25698 51.60498 32 ft 16 kts 289°
2026-05-05 19:38 25.25802 51.60425 34 ft 31 kts 338°
2026-05-05 19:39 25.26228 51.60233 34 ft 100 kts 338°
2026-05-05 19:39 25.27070 51.59864 32 ft 159 kts 339°
2026-05-05 19:39 25.28220 51.59375 377 ft 181 kts 340°
2026-05-05 19:39 25.29373 51.58887 1119 ft 178 kts 341°
2026-05-05 19:40 25.30573 51.58356 1441 ft 195 kts 339°
2026-05-05 19:40 25.31895 51.57761 1662 ft 216 kts 340°
2026-05-05 19:40 25.33351 51.57109 1876 ft 236 kts 340°
2026-05-05 19:40 25.34950 51.56399 2105 ft 259 kts 340°
2026-05-05 19:41 25.36662 51.55638 2571 ft 270 kts 339°
2026-05-05 19:41 25.38408 51.54861 3296 ft 270 kts 339°
2026-05-05 19:41 25.40147 51.54088 4108 ft 269 kts 339°
2026-05-05 19:41 25.41882 51.53318 4893 ft 269 kts 339°
2026-05-05 19:42 25.43624 51.52547 5598 ft 271 kts 339°
2026-05-05 19:42 25.45378 51.51767 6284 ft 272 kts 339°
2026-05-05 19:42 25.47152 51.51003 6940 ft 274 kts 341°
2026-05-05 19:42 25.49040 51.50680 7565 ft 278 kts
2026-05-05 19:43 25.50920 51.51085 8237 ft 281 kts 14°
2026-05-05 19:43 25.52808 51.51709 8944 ft 285 kts 15°
2026-05-05 19:43 25.54715 51.52355 9660 ft 288 kts 14°
2026-05-05 19:43 25.56642 51.52999 10300 ft 294 kts 14°
2026-05-05 19:44 25.58666 51.53667 10623 ft 312 kts 14°
2026-05-05 19:44 25.60809 51.54370 10897 ft 331 kts 14°
2026-05-05 19:44 25.63077 51.55113 11185 ft 348 kts 14°
2026-05-05 19:44 25.65483 51.55597 11499 ft 357 kts 358°
2026-05-05 19:45 25.67940 51.55177 12027 ft 360 kts 343°
2026-05-05 19:45 25.70342 51.54341 12640 ft 364 kts 340°
2026-05-05 19:45 25.72760 51.53451 13292 ft 367 kts 341°
2026-05-05 19:45 25.75192 51.52562 13926 ft 370 kts 341°
2026-05-05 19:46 25.77653 51.51672 14475 ft 375 kts 341°
2026-05-05 19:46 25.80148 51.50773 14983 ft 379 kts 341°
2026-05-05 19:46 25.82647 51.49802 15518 ft 383 kts 336°
2026-05-05 19:46 25.84934 51.48270 16023 ft 387 kts 319°
2026-05-05 19:47 25.86780 51.46082 16589 ft 390 kts 308°
2026-05-05 19:47 25.88455 51.43695 17174 ft 393 kts 307°
2026-05-05 19:47 25.90124 51.41277 17751 ft 397 kts 307°
2026-05-05 19:47 25.91818 51.38833 18277 ft 401 kts 307°
2026-05-05 19:48 25.93529 51.36375 18805 ft 404 kts 307°
2026-05-05 19:48 25.95257 51.33898 19373 ft 406 kts 307°
2026-05-05 19:48 25.96949 51.31384 19936 ft 408 kts 302°
2026-05-05 19:48 25.98386 51.28663 20492 ft 410 kts 297°
2026-05-05 19:49 25.99716 51.25845 21057 ft 412 kts 296°
2026-05-05 19:49 26.00588 51.23970 21439 ft 414 kts 296°
2026-05-05 19:49 26.02364 51.20152 22192 ft 418 kts 296°
2026-05-05 19:49 26.03703 51.17279 22781 ft 420 kts 295°
2026-05-05 19:50 26.05056 51.14378 23353 ft 423 kts 295°
2026-05-05 19:50 26.06398 51.11501 23843 ft 425 kts 295°
2026-05-05 19:50 26.07761 51.08579 24412 ft 426 kts 295°
2026-05-05 19:50 26.09142 51.05619 25011 ft 426 kts 295°
2026-05-05 19:51 26.10493 51.02721 25574 ft 427 kts 295°
2026-05-05 19:51 26.11877 50.99742 26107 ft 429 kts 294°
2026-05-05 19:51 26.13159 50.96790 26668 ft 429 kts 292°
2026-05-05 19:51 26.14394 50.93763 27216 ft 430 kts 291°
2026-05-05 19:52 26.15608 50.90718 27757 ft 432 kts 291°
2026-05-05 19:52 26.16832 50.87656 28304 ft 433 kts 291°
2026-05-05 19:52 26.18060 50.84595 28924 ft 432 kts 291°
2026-05-05 19:52 26.19295 50.81541 29494 ft 433 kts 291°
2026-05-05 19:53 26.20538 50.78486 29941 ft 435 kts 291°
2026-05-05 19:53 26.21797 50.75403 30257 ft 439 kts 291°
2026-05-05 19:53 26.23068 50.72294 30552 ft 443 kts 290°
2026-05-05 19:53 26.24350 50.69155 30849 ft 446 kts 290°
2026-05-05 19:54 26.25443 50.65931 31157 ft 446 kts 283°
2026-05-05 19:54 26.26160 50.62574 31459 ft 445 kts 277°
2026-05-05 19:54 26.26695 50.59165 31760 ft 447 kts 276°
2026-05-05 19:54 26.27166 50.55740 32132 ft 447 kts 275°
2026-05-05 19:55 26.27606 50.52313 32585 ft 446 kts 275°
2026-05-05 19:55 26.28031 50.48901 33051 ft 444 kts 274°
2026-05-05 19:55 26.28454 50.45509 33658 ft 439 kts 274°
2026-05-05 19:55 26.28876 50.42150 34094 ft 437 kts 274°
2026-05-05 19:56 26.29299 50.38800 34436 ft 436 kts 274°
2026-05-05 19:56 26.29725 50.35453 34775 ft 435 kts 274°
2026-05-05 19:56 26.30150 50.32119 35122 ft 434 kts 274°
2026-05-05 19:56 26.30596 50.28794 35468 ft 433 kts 274°
2026-05-05 19:57 26.31060 50.25522 35799 ft 432 kts 275°
2026-05-05 19:57 26.31382 50.23294 36013 ft 432 kts 275°
2026-05-05 19:57 26.31995 50.18918 36412 ft 429 kts 272°
2026-05-05 19:57 26.32199 50.15614 36678 ft 426 kts 266°
2026-05-05 19:58 26.32213 50.12274 36995 ft 425 kts 266°
2026-05-05 19:58 26.32176 50.08990 37319 ft 423 kts 265°
2026-05-05 19:58 26.32112 50.05759 37623 ft 422 kts 265°
2026-05-05 19:58 26.32034 50.02485 37735 ft 424 kts 265°
2026-05-05 19:59 26.31952 49.99204 37740 ft 425 kts 265°
2026-05-05 19:59 26.31792 49.92601 37738 ft 427 kts 265°
2026-05-05 20:00 26.31641 49.85987 37744 ft 427 kts 265°
2026-05-05 20:00 26.31493 49.79396 37742 ft 425 kts 265°
2026-05-05 20:01 26.31340 49.72812 37730 ft 425 kts 265°
2026-05-05 20:01 26.31183 49.66216 37719 ft 426 kts 265°
2026-05-05 20:02 26.31024 49.59615 37726 ft 426 kts 265°
2026-05-05 20:02 26.30861 49.53010 37722 ft 426 kts 265°
2026-05-05 20:03 26.30696 49.46401 37733 ft 427 kts 265°
2026-05-05 20:03 26.30528 49.39785 37728 ft 427 kts 265°
2026-05-05 20:04 26.30354 49.33162 37734 ft 427 kts 265°
2026-05-05 20:04 26.30177 49.26542 37739 ft 427 kts 264°
2026-05-05 20:05 26.29998 49.19927 37739 ft 427 kts 264°
2026-05-05 20:05 26.29816 49.13303 37761 ft 427 kts 264°
2026-05-05 20:06 26.29593 49.06719 37745 ft 424 kts 263°
2026-05-05 20:06 26.29084 49.00189 37748 ft 423 kts 261°
2026-05-05 20:07 26.28509 48.93671 37749 ft 423 kts 261°
2026-05-05 20:07 26.27973 48.87149 37756 ft 423 kts 262°
2026-05-05 20:08 26.27547 48.81721 37765 ft 423 kts 262°
2026-05-05 20:08 26.27041 48.75194 37764 ft 423 kts 262°
2026-05-05 20:09 26.26532 48.68664 37768 ft 423 kts 262°
2026-05-05 20:09 26.26019 48.62148 37773 ft 423 kts 262°
2026-05-05 20:10 26.25501 48.55619 37784 ft 423 kts 262°
2026-05-05 20:10 26.24380 48.49232 37782 ft 419 kts 250°
2026-05-05 20:11 26.22154 48.43235 37800 ft 419 kts 245°
2026-05-05 20:11 26.19701 48.37362 37795 ft 418 kts 245°
2026-05-05 20:12 26.17220 48.31514 37794 ft 418 kts 245°
2026-05-05 20:12 26.14753 48.25659 37798 ft 418 kts 245°
2026-05-05 20:13 26.12294 48.19805 37804 ft 418 kts 245°
2026-05-05 20:13 26.09329 48.14235 37804 ft 419 kts 238°
2026-05-05 20:14 26.06053 48.08862 37812 ft 420 kts 237°
2026-05-05 20:14 26.02728 48.03530 37817 ft 420 kts 237°
2026-05-05 20:15 25.99426 47.98235 37818 ft 419 kts 237°
2026-05-05 20:15 25.96108 47.92903 37826 ft 419 kts 237°
2026-05-05 20:16 25.92794 47.87573 37834 ft 419 kts 237°
2026-05-05 20:16 25.89478 47.82247 37833 ft 419 kts 237°
2026-05-05 20:17 25.86137 47.76887 37837 ft 419 kts 237°
2026-05-05 20:17 25.82842 47.71606 37844 ft 419 kts 237°
2026-05-05 20:18 25.79519 47.66289 37839 ft 419 kts 237°
2026-05-05 20:18 25.76199 47.60981 37849 ft 419 kts 237°
2026-05-05 20:19 25.72873 47.55670 37845 ft 421 kts 236°
2026-05-05 20:19 25.69524 47.50329 37855 ft 422 kts 236°
2026-05-05 20:20 25.66167 47.44982 37861 ft 422 kts 236°
2026-05-05 20:20 25.62833 47.39676 37863 ft 422 kts 236°
2026-05-05 20:21 25.59476 47.34339 37868 ft 423 kts 236°
2026-05-05 20:21 25.56113 47.28999 37874 ft 423 kts 236°
2026-05-05 20:22 25.52745 47.23659 37875 ft 423 kts 236°
2026-05-05 20:22 25.49379 47.18326 37881 ft 423 kts 236°
2026-05-05 20:23 25.46010 47.12994 37888 ft 423 kts 236°
2026-05-05 20:23 25.42636 47.07662 37884 ft 423 kts 236°
2026-05-05 20:24 25.39265 47.02339 37891 ft 423 kts 236°
2026-05-05 20:24 25.35891 46.97019 37896 ft 423 kts 236°
2026-05-05 20:25 25.32510 46.91693 37899 ft 423 kts 236°
2026-05-05 20:25 25.29128 46.86372 37898 ft 423 kts 236°
2026-05-05 20:26 25.25751 46.81065 37900 ft 423 kts 236°
2026-05-05 20:26 25.22368 46.75753 37892 ft 423 kts 236°
2026-05-05 20:27 25.18974 46.70431 37904 ft 424 kts 236°
2026-05-05 20:27 25.15574 46.65105 37912 ft 425 kts 236°
2026-05-05 20:28 25.12171 46.59781 37906 ft 424 kts 236°
2026-05-05 20:28 25.08788 46.54493 37906 ft 425 kts 236°
2026-05-05 20:29 25.05374 46.49162 37908 ft 425 kts 236°
2026-05-05 20:29 25.01959 46.43837 37908 ft 425 kts 236°
2026-05-05 20:30 24.98543 46.38517 37910 ft 425 kts 236°
2026-05-05 20:30 24.95122 46.33193 37911 ft 426 kts 235°
2026-05-05 20:31 24.91696 46.27868 37915 ft 426 kts 235°
2026-05-05 20:31 24.88265 46.22542 37921 ft 426 kts 235°
2026-05-05 20:32 24.84832 46.17218 37919 ft 426 kts 235°
2026-05-05 20:32 24.81399 46.11899 37920 ft 426 kts 235°
2026-05-05 20:33 24.77967 46.06589 37924 ft 426 kts 235°
2026-05-05 20:33 24.74532 46.01279 37921 ft 426 kts 235°
2026-05-05 20:34 24.71098 45.95977 37920 ft 426 kts 235°
2026-05-05 20:34 24.67655 45.90666 37905 ft 427 kts 235°
2026-05-05 20:35 24.64199 45.85342 37905 ft 428 kts 235°
2026-05-05 20:35 24.60734 45.80010 37926 ft 428 kts 235°
2026-05-05 20:36 24.57296 45.74725 37908 ft 428 kts 235°
2026-05-05 20:36 24.53833 45.69406 37910 ft 428 kts 235°
2026-05-05 20:37 24.50367 45.64090 37917 ft 428 kts 235°
2026-05-05 20:37 24.46896 45.58771 37914 ft 428 kts 235°
2026-05-05 20:38 24.43428 45.53463 37921 ft 428 kts 235°
2026-05-05 20:38 24.39956 45.48155 37920 ft 428 kts 234°
2026-05-05 20:39 24.36482 45.42849 37925 ft 428 kts 234°
2026-05-05 20:39 24.33006 45.37546 37929 ft 428 kts 234°
2026-05-05 20:40 24.29526 45.32242 37929 ft 428 kts 234°
2026-05-05 20:40 24.26045 45.26944 37933 ft 428 kts 234°
2026-05-05 20:41 24.22566 45.21652 37933 ft 428 kts 234°
2026-05-05 20:41 24.19081 45.16358 37938 ft 428 kts 234°
2026-05-05 20:42 24.15861 45.10929 37951 ft 429 kts 241°
2026-05-05 20:42 24.13135 45.05114 37937 ft 430 kts 242°
2026-05-05 20:43 24.10499 44.99247 37952 ft 430 kts 243°
2026-05-05 20:43 24.07868 44.93373 37949 ft 429 kts 243°
2026-05-05 20:44 24.05231 44.87523 37945 ft 428 kts 243°
2026-05-05 20:44 24.02589 44.81684 37948 ft 428 kts 242°
2026-05-05 20:45 23.98618 44.72928 37955 ft 429 kts 243°
2026-05-05 20:45 23.95959 44.67075 37955 ft 431 kts 243°
2026-05-05 20:46 23.93293 44.61200 37966 ft 431 kts 243°
2026-05-05 20:46 23.90997 44.55155 37950 ft 431 kts 247°
2026-05-05 20:47 23.88842 44.49054 37946 ft 431 kts 247°
2026-05-05 20:47 23.86703 44.42935 37956 ft 431 kts 248°
2026-05-05 20:48 23.84556 44.36816 37957 ft 432 kts 247°
2026-05-05 20:48 23.82399 44.30695 37956 ft 431 kts 247°
2026-05-05 20:49 23.80254 44.24626 37933 ft 431 kts 247°
2026-05-05 20:49 23.78093 44.18518 37942 ft 430 kts 247°
2026-05-05 20:50 23.76287 44.13420 37939 ft 430 kts 247°
2026-05-05 20:50 23.73771 44.06329 37940 ft 432 kts 247°
2026-05-05 20:51 23.71596 44.00208 37933 ft 432 kts 247°
2026-05-05 20:51 23.69423 43.94100 37949 ft 432 kts 247°
2026-05-05 20:52 23.67251 43.88004 37936 ft 431 kts 247°
2026-05-05 20:52 23.65074 43.81905 37949 ft 431 kts 247°
2026-05-05 20:53 23.62899 43.75820 37957 ft 431 kts 247°
2026-05-05 20:53 23.60720 43.69728 37942 ft 432 kts 247°
2026-05-05 20:54 23.58532 43.63625 37965 ft 432 kts 247°
2026-05-05 20:54 23.56346 43.57532 37957 ft 430 kts 247°
2026-05-05 20:55 23.54166 43.51464 37959 ft 429 kts 247°
2026-05-05 20:55 23.51986 43.45408 37974 ft 430 kts 247°
2026-05-05 20:56 23.49794 43.39329 37970 ft 431 kts 247°
2026-05-05 20:56 23.47974 43.34285 37985 ft 430 kts 247°
2026-05-05 20:57 23.45429 43.27241 37985 ft 430 kts 247°
2026-05-05 20:57 23.43236 43.21179 37990 ft 430 kts 247°
2026-05-05 20:58 23.41398 43.16109 37994 ft 430 kts 247°
2026-05-05 20:58 23.39202 43.10057 38010 ft 430 kts 247°
2026-05-05 20:59 23.37000 43.04004 38003 ft 430 kts 247°
2026-05-05 20:59 23.34797 42.97959 38008 ft 430 kts 247°
2026-05-05 21:00 23.32590 42.91908 38004 ft 430 kts 247°
2026-05-05 21:00 23.30379 42.85857 38014 ft 430 kts 246°
2026-05-05 21:01 23.28184 42.79858 37989 ft 430 kts 247°
2026-05-05 21:01 23.25963 42.73794 37998 ft 433 kts 247°
2026-05-05 21:02 23.23734 42.67718 38018 ft 433 kts 247°
2026-05-05 21:02 23.21500 42.61634 37999 ft 433 kts 247°
2026-05-05 21:03 23.19266 42.55559 38027 ft 433 kts 246°
2026-05-05 21:03 23.17030 42.49489 38012 ft 432 kts 246°
2026-05-05 21:04 23.14792 42.43422 38017 ft 434 kts 246°
2026-05-05 21:04 23.12544 42.37337 38004 ft 434 kts 246°
2026-05-05 21:05 23.10324 42.31232 38023 ft 434 kts 247°
2026-05-05 21:05 23.08155 42.25113 38009 ft 434 kts 247°
2026-05-05 21:06 23.05984 42.18999 38022 ft 434 kts 247°
2026-05-05 21:06 23.03806 42.12897 38025 ft 432 kts 247°
2026-05-05 21:07 23.01625 42.06811 38017 ft 433 kts 247°
2026-05-05 21:07 22.99438 42.00717 38014 ft 433 kts 247°
2026-05-05 21:08 22.97249 41.94624 38023 ft 433 kts 247°
2026-05-05 21:08 22.95061 41.88541 38018 ft 433 kts 247°
2026-05-05 21:09 22.92874 41.82456 38028 ft 433 kts 247°
2026-05-05 21:09 22.90678 41.76377 38017 ft 433 kts 247°
2026-05-05 21:10 22.88482 41.70302 38026 ft 433 kts 247°
2026-05-05 21:10 22.86284 41.64226 38033 ft 433 kts 247°
2026-05-05 21:11 22.84097 41.58188 38037 ft 433 kts 247°
2026-05-05 21:11 22.81897 41.52120 38041 ft 432 kts 246°
2026-05-05 21:12 22.79701 41.46072 38044 ft 431 kts 246°
2026-05-05 21:12 22.77501 41.40025 38032 ft 431 kts 247°
2026-05-05 21:13 22.75292 41.33960 38046 ft 433 kts 246°
2026-05-05 21:13 22.73079 41.27890 38048 ft 433 kts 246°
2026-05-05 21:14 22.70863 41.21830 38054 ft 433 kts 246°
2026-05-05 21:14 22.68642 41.15765 38048 ft 433 kts 246°
2026-05-05 21:15 22.66425 41.09710 38064 ft 433 kts 246°
2026-05-05 21:15 22.64205 41.03660 38042 ft 432 kts 246°
2026-05-05 21:16 22.61973 40.97602 38058 ft 434 kts 246°
2026-05-05 21:16 22.59739 40.91539 38056 ft 434 kts 246°
2026-05-05 21:17 22.57501 40.85473 38053 ft 434 kts 246°
2026-05-05 21:17 22.56385 40.82444 37934 ft 432 kts 246°
2026-05-05 21:17 22.55275 40.79437 37667 ft 430 kts 246°
2026-05-05 21:18 22.54163 40.76432 37398 ft 430 kts 246°
2026-05-05 21:18 22.53052 40.73431 37153 ft 430 kts 246°
2026-05-05 21:18 22.51940 40.70426 36861 ft 429 kts 247°
2026-05-05 21:18 22.50836 40.67447 36317 ft 426 kts 247°
2026-05-05 21:19 22.49733 40.64469 35691 ft 425 kts 247°
2026-05-05 21:19 22.48633 40.61504 35053 ft 426 kts 247°
2026-05-05 21:19 22.47528 40.58529 34336 ft 428 kts 248°
2026-05-05 21:19 22.46429 40.55568 33541 ft 431 kts 248°
2026-05-05 21:20 22.45298 40.52523 32816 ft 431 kts 248°
2026-05-05 21:20 22.44203 40.49575 32312 ft 426 kts 247°
2026-05-05 21:20 22.43102 40.46615 31817 ft 423 kts 247°
2026-05-05 21:20 22.41994 40.43638 31266 ft 420 kts 247°
2026-05-05 21:21 22.40922 40.40761 30752 ft 417 kts 247°
2026-05-05 21:21 22.39845 40.37871 30224 ft 414 kts 247°
2026-05-05 21:21 22.38775 40.35001 29640 ft 411 kts 247°
2026-05-05 21:21 22.37709 40.32147 29134 ft 407 kts 247°
2026-05-05 21:22 22.36658 40.29330 28628 ft 402 kts 247°
2026-05-05 21:22 22.35614 40.26538 28124 ft 398 kts 247°
2026-05-05 21:22 22.34584 40.23782 27633 ft 395 kts 246°
2026-05-05 21:22 22.33558 40.21040 27128 ft 391 kts 246°
2026-05-05 21:23 22.32542 40.18327 26648 ft 389 kts 246°
2026-05-05 21:23 22.31530 40.15625 26156 ft 386 kts 246°
2026-05-05 21:23 22.30524 40.12942 25674 ft 386 kts 246°
2026-05-05 21:23 22.29518 40.10259 25174 ft 385 kts 246°
2026-05-05 21:24 22.28504 40.07558 24772 ft 395 kts 246°
2026-05-05 21:24 22.27454 40.04767 24434 ft 405 kts 246°
2026-05-05 21:24 22.26297 40.02004 24063 ft 402 kts 239°
2026-05-05 21:24 22.24852 39.99457 23729 ft 392 kts 236°
2026-05-05 21:25 22.23366 39.97030 23398 ft 384 kts 235°
2026-05-05 21:25 22.21902 39.94648 23009 ft 377 kts 236°
2026-05-05 21:25 22.20467 39.92308 22614 ft 371 kts 235°
2026-05-05 21:25 22.19057 39.90006 22225 ft 365 kts 235°
2026-05-05 21:26 22.17670 39.87739 21860 ft 359 kts 235°
2026-05-05 21:26 22.16305 39.85503 21496 ft 354 kts 235°
2026-05-05 21:26 22.14960 39.83304 21101 ft 348 kts 235°
2026-05-05 21:26 22.13635 39.81141 20747 ft 343 kts 235°
2026-05-05 21:27 22.12326 39.79006 20397 ft 338 kts 235°
2026-05-05 21:27 22.11039 39.76906 20045 ft 334 kts 235°
2026-05-05 21:27 22.09767 39.74830 19681 ft 329 kts 235°
2026-05-05 21:27 22.08517 39.72789 19461 ft 321 kts 235°
2026-05-05 21:28 22.07299 39.70802 19155 ft 315 kts 235°
2026-05-05 21:28 22.06094 39.68837 18781 ft 313 kts 235°
2026-05-05 21:28 22.04910 39.66909 18367 ft 312 kts 235°
2026-05-05 21:28 22.03719 39.64969 17969 ft 310 kts 235°
2026-05-05 21:29 22.02542 39.63054 17567 ft 307 kts 235°
2026-05-05 21:29 22.01371 39.61147 17196 ft 305 kts 235°
2026-05-05 21:29 22.00196 39.59235 16826 ft 303 kts 235°
2026-05-05 21:29 21.99030 39.57338 16447 ft 302 kts 234°
2026-05-05 21:30 21.97879 39.55466 16071 ft 299 kts 234°
2026-05-05 21:30 21.96513 39.53806 15715 ft 297 kts 216°
2026-05-05 21:30 21.94667 39.52846 15362 ft 296 kts 197°
2026-05-05 21:30 21.92674 39.52296 14996 ft 296 kts 194°
2026-05-05 21:31 21.90665 39.51812 14647 ft 294 kts 193°
2026-05-05 21:31 21.88668 39.51337 14200 ft 294 kts 193°
2026-05-05 21:31 21.86668 39.50857 13746 ft 295 kts 193°
2026-05-05 21:31 21.84666 39.50361 13218 ft 295 kts 193°
2026-05-05 21:32 21.82664 39.49853 12723 ft 296 kts 193°
2026-05-05 21:32 21.80663 39.49342 12241 ft 296 kts 193°
2026-05-05 21:32 21.78656 39.48827 11741 ft 297 kts 193°
2026-05-05 21:32 21.76648 39.48312 11279 ft 296 kts 193°
2026-05-05 21:33 21.74649 39.47797 10872 ft 294 kts 193°
2026-05-05 21:33 21.72670 39.47285 10478 ft 292 kts 193°
2026-05-05 21:33 21.70706 39.46776 10090 ft 290 kts 193°
2026-05-05 21:33 21.68755 39.46269 9741 ft 287 kts 193°
2026-05-05 21:34 21.66822 39.45767 9362 ft 285 kts 193°
2026-05-05 21:34 21.64898 39.45272 8999 ft 285 kts 193°
2026-05-05 21:34 21.62997 39.44791 8637 ft 284 kts 193°
2026-05-05 21:34 21.61074 39.44306 8277 ft 285 kts 193°
2026-05-05 21:35 21.59149 39.43820 7913 ft 285 kts 193°
2026-05-05 21:35 21.57219 39.43340 7503 ft 285 kts 194°
2026-05-05 21:35 21.55286 39.42867 7078 ft 284 kts 194°
2026-05-05 21:35 21.53354 39.42408 6671 ft 284 kts 194°
2026-05-05 21:36 21.51419 39.41970 6250 ft 284 kts 193°
2026-05-05 21:36 21.49571 39.41270 5816 ft 282 kts 214°
2026-05-05 21:36 21.48185 39.39825 5400 ft 276 kts 240°
2026-05-05 21:36 21.47452 39.37953 4959 ft 272 kts 260°
2026-05-05 21:37 21.47310 39.35934 4490 ft 272 kts 272°
2026-05-05 21:37 21.47332 39.33933 4038 ft 272 kts 274°
2026-05-05 21:37 21.47357 39.31914 3662 ft 270 kts 274°
2026-05-05 21:37 21.47374 39.29929 3297 ft 267 kts 274°
2026-05-05 21:38 21.47373 39.27918 2938 ft 264 kts 274°
2026-05-05 21:38 21.47659 39.26083 2671 ft 253 kts 300°
2026-05-05 21:38 21.48840 39.24736 2551 ft 248 kts 334°
2026-05-05 21:38 21.50428 39.24144 2442 ft 238 kts 347°
2026-05-05 21:39 21.51986 39.23737 2329 ft 224 kts 346°
2026-05-05 21:39 21.53437 39.23281 2232 ft 210 kts 342°
2026-05-05 21:39 21.54768 39.22765 2120 ft 198 kts 339°
2026-05-05 21:39 21.56007 39.22249 2038 ft 184 kts 340°
2026-05-05 21:40 21.57157 39.21793 1969 ft 169 kts 341°
2026-05-05 21:40 21.58221 39.21380 1773 ft 157 kts 342°
2026-05-05 21:40 21.59214 39.20989 1576 ft 146 kts 342°
2026-05-05 21:40 21.60134 39.20628 1382 ft 136 kts 341°
2026-05-05 21:41 21.61000 39.20284 1221 ft 131 kts 341°
2026-05-05 21:41 21.61852 39.19946 1041 ft 133 kts 342°
2026-05-05 21:41 21.62719 39.19604 883 ft 132 kts 342°
2026-05-05 21:41 21.63589 39.19260 715 ft 135 kts 342°
2026-05-05 21:42 21.64472 39.18910 560 ft 138 kts 342°
2026-05-05 21:42 21.65383 39.18554 388 ft 140 kts 341°
2026-05-05 21:42 21.66294 39.18183 208 ft 139 kts 340°
2026-05-05 21:42 21.67180 39.17831 45 ft 132 kts 341°
2026-05-05 21:43 21.67914 39.17546 40 ft 71 kts 340°
2026-05-05 21:43 21.68204 39.17428 34 ft 38 kts 333°
2026-05-05 21:43 21.68360 39.17276 31 ft 25 kts 310°
2026-05-05 21:43 21.68470 39.17134 33 ft 24 kts 310°
2026-05-05 21:44 21.68481 39.17013 34 ft 17 kts 214°
2026-05-05 21:44 21.68372 39.17031 36 ft 17 kts 158°
2026-05-05 21:44 21.68252 39.17083 35 ft 20 kts 158°
2026-05-05 21:44 21.68120 39.17137 36 ft 17 kts 159°
2026-05-05 21:45 21.68018 39.17170 36 ft 15 kts 179°
2026-05-05 21:45 21.67948 39.17104 36 ft 15 kts 249°
2026-05-05 21:45 21.67868 39.17050 36 ft 16 kts 166°
2026-05-05 21:45 21.67796 39.17079 36 ft 18 kts 159°
2026-05-05 21:46 21.67671 39.17128 36 ft 20 kts 160°
2026-05-05 21:46 21.67557 39.17172 36 ft 9 kts 160°
2026-05-05 21:46 21.67502 39.17184 36 ft 9 kts 184°
2026-05-05 21:46 21.67436 39.17147 36 ft 6 kts 214°
2026-05-05 21:47 21.67411 39.17127 36 ft 5 kts 217°
2026-05-05 21:47 21.67399 39.17119 36 ft 2 kts 207°
2026-05-05 21:47 21.67385 39.17121 36 ft 3 kts 176°
2026-05-05 21:47 21.67357 39.17134 36 ft 5 kts 144°
2026-05-05 21:48 21.67346 39.17146 36 ft 2 kts 137°
2026-05-05 21:48 21.67342 39.17150 36 ft 0 kts 137°
2026-05-05 21:48 21.67333 39.17160 36 ft 3 kts 135°
2026-05-05 21:48 21.67328 39.17166 36 ft 1 kts 131°
2026-05-05 21:49 21.67321 39.17174 36 ft 1 kts 131°
2026-05-05 21:49 21.67320 39.17176 36 ft 0 kts 131°